SCP
0 0 0 0 0 0 0 0 0 0 0 0 0 0 0 0 0 0 0 0 0 0 0 0 0 0 0 0 0 0 0 0 0 0 0 0 0 0 0 0 0 0 0
0 0 0 0 0 0 0 0 0 0 0 0 0 0 0 0 0 0 0 0 0 0 0 0 0 0 0 0 0 0 0 0 0 0 0 0 0 0 0 0 0 0 0
0 0 0 0 0 0 0 0 0 0 0 0 0 0 0 0 0 0 0 0 0 0 0 0 0 0 0 0 0 0 0 0 0 0 0 0 0 0 0 0 0 0 0
0 0 0 0 0 0 0 0 0 0 0 0 0 0 0 0 0 0 0 0 0 0 0 0 0 0 0 0 0 0 0 0 0 0 0 0 0 0 0 0 0 0 0
0 0 0 0 0 0 0 0 0 0 0 0 0 0 0 0 0 0 0 0 0 0 0 0 0 0 0 0 0 0 0 0 0 0 0 0 0 0 0 0 0 0 0
0 0 0 0 0 0 0 0 0 0 0 0 0 0 0 0 0 0 0 0 0 0 0 0 0 0 0 0 0 0 0 0 0 0 0 0 0 0 0 0 0 0 0
0 0 0 0 0 0 0 0 0 0 0 0 0 0 0 0 0 0 0 0 0 0 0 0 0 0 0 0 0 0 0 0 0 0 0 0 0 0 0 0 0 0 0
0 0 0 0 0 0 0 0 0 0 0 0 0 0 0 0 0 0 0 0 0 0 0 0 0 0 0 0 0 0 0 0 0 0 0 0 0 0 0 0 0 0 0
0 0 0 0 0 0 0 0 0 0 0 0 0 0 0 0 0 0 0 0 0 0 0 0 0 0 0 0 0 0 0 0 0 0 0 0 0 0 0 0 0 0 0
0 0 0 0 0 0 0 0 0 0 0 0 0 0 0 0 0 0 0 0 0 0 0 0 0 0 0 0 0 0 0 0 0 0 0 0 0 0 0 0 0 0 0
0 0 0 0 0 0 0 0 0 0 0 0 0 0 0 0 0 0 0 0 0 0 0 0 0 0 0 0 0 0 0 0 0 0 0 0 0 0 0 0 0 0 0
0 0 0 0 0 0 0 0 0 0 0 0 0 0 0 0 0 0 0 0 0 0 0 0 0 0 0 0 0 0 0 0 0 0 0 0 0 0 0 0 0 0 0
0 0 0 0 0 0 0 0 0 0 0 0 0 0 0 0 0 0 0 0 0 0 0 0 0 0 0 0 0 0 0 0 0 0 0 0 0 0 0 0 0 0 0
0 0 0 0 0 0 0 0 0 0 0 0 0 0 0 0 0 0 0 0 0 0 0 0 0 0 0 0 0 0 0 0 0 0 0 0 0 0 0 0 0 0 0
0 0 0 0 0 0 0 0 0 0 0 0 0 0 0 0 0 0 0 0 0 0 0 0 0 0 0 0 0 0 0 0 0 0 0 0 0 0 0 0 0 0 0
0 0 0 0 0 0 0 0 0 0 0 0 0 0 0 0 0 0 0 0 0 0 0 0 0 0 0 0 0 0 0 0 0 0 0 0 0 0 0 0 0 0 0
0 0 0 0 0 0 0 0 0 0 0 0 0 0 0 0 0 0 0 0 0 0 0 0 0 0 0 0 0 0 0 0 0 0 0 0 0 0 0 0 0 0 0
0 0 0 0 0 0 0 0 0 0 0 0 0 0 0 0 0 0 0 0 0 0 0 0 0 0 0 0 0 0 0 0 0 0 0 0 0 0 0 0 0 0 0
0 0 0 0 0 0 0 0 0 0 0 0 0 0 0 0 0 0 0 0 0 0 0 0 0 0 0 0 0 0 0 0 0 0 0 0 0 0 0 0 0 0 0
0 0 0 0 0 0 0 0 0 0 0 0 0 0 0 0 0 0 0 0 0 0 0 0 0 0 0 0 0 0 0 0 0 0 0 0 0 0 0 0 0 0 0
0 0 0 0 0 0 0 0 0 0 0 0 0 0 0 0 0 0 0 0 0 0 0 0 0 0 0 0 0 0 0 0 0 0 0 0 0 0 0 0 0 0 0
0 0 0 0 0 0 0 0 0 0 0 0 0 0 0 0 0 0 0 0 0 0 0 0 0 0 0 0 0 0 0 0 0 0 0 0 0 0 0 0 0 0 0
0 0 0 0 0 0 0 0 0 0 0 0 0 0 0 0 0 0 0 0 0 0 0 0 0 0 0 0 0 0 0 0 0 0 0 0 0 0 0 0 0 0 0
0 0 0 0 0 0 0 0 0 0 0 0 0 0 0 0 0 0 0 0 0 0 0 0 0 0 0 0 0 0 0 0 0 0 0 0 0 0 0 0 0 0 0
0 0 0 0 0 0 0 0 0 0 0 0 0 0 0 0 0 0 0 0 0 0 0 0 0 0 0 0 0 0 0 0 0 0 0 0 0 0 0 0 0 0 0
0 0 0 0 0 0 0 0 0 0 0 0 0 0 0 0 0 0 0 0 0 0 0 0 0 0 0 0 0 0 0 0 0 0 0 0 0 0 0 0 0 0 0
Wind_Speed
4 4 5 4 4 4 4 4 5 5 5 4 5 6 7 7 8 9 9 10 11 11 11 11 11 12 11 11 11 11 12 12 12 12 12 11 11 11 10 10 9 8 10
4 5 5 5 5 4 5 5 5 6 6 6 6 6 7 7 7 8 9 9 10 10 11 11 11 11 11 11 11 11 11 11 11 11 12 11 11 10 9 7 4 7 10
4 5 5 6 6 6 6 6 6 6 7 7 7 7 6 6 7 9 9 9 9 10 10 10 10 10 11 11 11 11 11 11 11 10 10 9 10 9 8 8 7 8 9
5 5 7 8 7 7 6 7 7 7 7 7 7 7 6 6 8 9 9 9 9 9 10 10 9 9 10 10 10 10 10 10 10 10 7 6 7 9 9 9 9 9 9
6 6 9 7 7 8 7 7 8 8 8 8 8 8 7 8 9 9 9 9 8 9 9 9 9 9 9 9 10 10 10 10 9 8 5 5 6 9 9 9 9 9 9
6 7 9 8 8 8 8 8 8 9 9 8 8 8 8 8 9 9 9 8 8 8 8 8 8 8 8 9 10 10 9 9 9 6 5 5 5 8 9 9 9 9 8
7 7 9 9 8 9 9 9 9 9 9 9 8 8 8 8 8 8 8 8 8 8 8 8 8 8 8 8 10 9 8 7 4 4 4 4 6 9 9 8 9 9 8
6 7 8 9 9 9 10 9 9 9 9 9 9 8 9 9 9 9 8 8 7 7 7 8 8 8 8 8 8 8 8 6 5 4 4 4 8 8 8 8 8 8 8
6 6 6 7 8 9 11 10 10 10 10 9 9 9 9 9 9 9 9 8 7 6 7 8 8 7 7 7 7 7 6 4 3 3 4 4 9 8 7 7 8 8 7
6 6 6 7 6 6 9 11 10 10 10 9 9 9 8 9 10 9 9 9 8 8 8 8 7 7 7 7 7 6 6 5 3 4 3 6 10 8 6 6 6 6 7
6 6 6 6 6 6 8 8 8 9 8 7 7 7 4 5 7 7 10 9 9 8 8 7 7 6 6 7 7 5 5 3 4 3 3 8 9 7 6 6 6 5 5
6 6 6 6 6 6 5 5 4 5 6 6 6 5 5 5 5 6 9 8 8 8 7 7 6 5 4 4 7 7 2 3 3 3 5 9 8 7 6 5 5 5 5
5 5 6 6 5 5 4 4 3 4 4 5 6 5 5 4 4 4 4 6 6 5 4 6 4 2 2 3 2 2 2 1 2 2 5 9 7 6 5 4 4 4 5
4 4 5 5 5 5 5 4 3 3 3 4 5 5 4 3 4 5 3 4 3 3 3 3 2 3 3 2 2 2 2 1 2 2 5 8 6 5 4 4 4 5 5
4 4 4 4 5 4 4 3 4 4 4 4 4 5 4 4 4 4 4 3 3 3 3 2 3 3 2 1 1 2 1 2 2 2 4 8 6 5 4 4 4 4 4
4 4 4 4 5 3 3 3 2 3 3 3 4 5 4 4 4 3 3 3 3 3 3 2 3 2 1 1 1 2 1 1 1 1 2 5 7 5 4 4 4 4 4
4 4 4 4 4 3 3 2 2 2 3 3 3 4 3 3 3 2 3 3 3 3 3 2 2 1 1 1 1 1 1 0 0 1 1 1 4 6 5 4 4 4 4
4 4 3 3 4 3 3 1 2 2 2 2 2 3 3 3 3 2 2 3 2 2 1 1 1 1 1 1 1 1 0 1 1 1 1 1 1 2 5 6 4 4 4
5 4 4 3 3 3 3 2 2 2 2 2 2 2 3 2 2 1 2 2 1 1 2 1 2 1 1 1 1 1 0 0 0 1 1 2 2 2 1 5 6 5 5
5 5 4 4 3 2 2 2 1 2 1 1 2 2 2 1 2 1 1 2 2 2 1 2 2 2 1 1 1 1 1 1 0 1 2 2 2 2 2 2 3 5 6
6 5 5 4 4 3 2 1 1 2 1 1 1 2 1 1 2 1 1 1 1 1 2 1 1 1 0 0 1 0 1 1 0 0 1 1 1 1 1 1 2 2 3
7 6 6 6 5 4 2 1 1 0 0 1 1 2 1 1 1 0 1 1 1 1 1 1 1 1 1 1 2 2 1 2 1 1 1 1 1 1 1 2 1 1 2
8 7 6 6 5 5 4 3 2 2 2 2 2 1 1 1 1 1 1 2 2 2 1 2 1 2 2 1 2 3 3 1 1 1 1 1 1 2 2 1 1 1 2
9 8 7 6 6 6 5 4 4 2 2 1 1 1 1 0 0 1 1 1 2 2 1 2 1 2 3 2 0 1 2 3 3 1 2 1 1 2 2 2 2 1 1
9 8 7 7 7 6 6 5 5 4 2 2 2 2 1 1 0 0 1 1 1 2 2 3 2 3 2 3 2 1 1 1 3 3 2 2 1 1 1 2 2 1 1
8 8 8 8 7 7 7 6 6 5 3 2 2 1 2 1 1 0 0 1 2 2 2 2 2 2 3 3 3 2 2 2 2 2 3 3 2 1 1 1 2 1 1
Wind_Direction
46 51 50 20 31 46 54 67 78 87 95 100 105 118 125 125 127 129 127 127 127 129 133 135 134 131 134 136 134 132 131 134 135 134 134 133 133 135 140 149 160 142 132
44 59 63 30 48 62 71 75 81 87 92 91 96 110 123 125 131 132 129 125 126 129 132 133 132 130 133 136 136 136 136 136 138 138 140 141 139 139 146 158 157 124 140
54 65 77 55 60 71 70 69 77 86 94 95 96 101 108 119 132 132 128 126 125 128 131 134 133 132 133 135 136 138 137 138 141 149 160 151 142 147 152 154 143 141 144
64 66 64 62 65 70 71 74 78 84 91 98 100 97 97 113 127 129 128 127 126 126 130 132 132 132 133 134 133 135 139 143 148 167 169 145 143 143 154 155 150 152 151
70 66 73 64 67 67 69 73 76 82 89 92 95 94 92 107 118 123 123 124 125 126 128 128 128 128 132 134 132 134 139 144 157 178 151 146 137 141 152 152 153 152 152
75 71 74 62 65 68 70 70 74 79 84 87 90 92 93 99 108 116 118 119 122 126 128 125 123 122 125 135 139 139 143 155 177 165 148 149 133 143 154 154 153 152 153
76 74 79 67 65 67 69 70 71 78 80 83 85 88 95 99 106 112 111 114 122 127 129 127 124 114 112 126 136 141 151 171 188 151 153 140 120 137 152 156 154 154 156
75 76 86 89 75 73 72 72 73 75 76 78 82 84 91 99 106 108 111 114 115 120 124 121 118 114 111 117 130 142 154 180 171 154 148 136 118 134 149 155 156 156 161
72 72 75 88 94 92 82 74 73 73 73 75 79 85 92 99 102 105 109 111 111 112 116 117 117 118 124 127 132 137 147 173 177 141 141 127 125 138 145 152 157 162 167
76 76 77 78 75 85 91 83 78 75 71 73 76 79 91 108 108 111 111 103 106 110 114 120 121 118 125 130 131 136 146 178 156 139 130 120 131 144 149 150 156 169 175
79 77 73 75 76 76 78 86 91 88 76 81 84 83 91 92 99 113 88 93 97 101 105 113 122 125 135 140 139 148 175 179 134 124 116 116 138 148 152 157 164 174 178
82 80 75 71 70 79 73 77 73 76 74 64 62 62 65 66 68 80 101 97 97 100 109 106 120 146 180 143 146 172 175 148 137 130 117 131 145 152 155 161 173 179 186
90 86 83 82 60 59 70 71 64 67 69 71 65 67 66 64 77 79 91 109 106 110 102 111 131 111 93 84 82 113 105 121 119 121 120 137 152 162 167 171 178 187 194
93 86 78 79 76 58 50 62 73 75 72 68 69 55 65 62 55 61 60 64 78 82 75 71 81 81 77 93 101 96 109 128 117 117 116 135 151 165 179 189 190 197 203
108 95 87 75 73 70 63 45 66 66 67 78 70 65 56 64 60 57 53 49 54 69 85 75 71 81 90 126 126 114 109 113 116 136 124 136 155 175 194 208 209 212 216
127 112 97 92 89 78 75 65 66 78 78 66 72 68 54 58 58 53 64 54 50 49 48 53 70 76 78 84 104 113 130 117 119 144 139 143 157 174 191 208 218 222 226
133 120 119 112 99 96 90 81 84 85 85 78 81 84 70 68 68 61 64 60 50 48 61 61 60 68 119 116 109 113 132 97 94 151 203 185 161 169 182 197 210 218 228
142 136 132 125 114 108 95 70 72 68 80 83 84 88 80 68 66 48 57 55 47 42 47 64 66 43 65 59 58 29 65 146 190 200 207 201 223 175 172 180 194 208 223
156 152 152 137 129 121 116 118 103 96 82 84 87 80 81 78 68 46 47 42 17 33 26 4 57 12 55 45 75 116 1 320 200 210 213 204 191 217 203 163 184 204 223
165 164 168 163 153 152 148 138 128 108 108 105 96 76 67 81 71 17 75 46 9 25 14 21 18 24 11 21 17 42 18 351 286 229 232 211 202 211 226 241 202 194 201
174 175 181 179 167 180 171 172 149 140 141 124 116 95 90 70 70 43 28 47 349 23 0 348 352 75 79 322 245 184 169 164 137 234 261 267 201 221 248 273 274 284 190
183 184 184 185 182 190 169 172 158 133 165 112 92 95 87 84 52 100 28 350 27 28 19 353 325 315 307 287 292 275 235 178 165 163 215 230 283 256 228 231 264 267 285
186 188 190 189 187 194 181 185 172 176 195 166 157 148 146 107 68 20 5 355 342 340 17 330 309 298 301 296 317 305 307 348 314 177 240 261 289 291 277 267 246 255 257
187 186 189 191 191 190 192 203 208 208 190 156 194 116 151 96 31 27 4 349 324 334 340 303 2 301 288 293 266 302 323 330 296 269 219 219 263 265 287 290 289 246 254
187 187 184 186 190 191 198 200 215 218 203 192 190 146 232 163 242 346 345 330 307 312 343 332 330 312 305 308 308 296 278 244 264 280 296 293 258 256 262 262 271 280 274
187 188 184 182 188 192 199 205 216 219 218 222 219 192 222 189 183 129 313 317 299 321 320 313 311 312 322 317 306 300 284 291 289 287 284 275 291 298 292 303 279 264 260